DW5963 Weather Reports


Display with metric or nautical units.
time (UTC)temp
F
wind
direction
speed
MPH
gust
MPH
rain 1hr
in
rain 24hr
in
rain mn
in
humidity
%
barometer
mb
20260905021530 83 360 8.0 0.0 0.00 0.00 0.00 52 1004.9
20260905021030 83 360 8.0 0.0 0.00 0.00 0.00 52 1004.8
20260905020529 83 360 8.0 0.0 0.00 0.00 0.00 52 1004.8
20260905020036 82 360 7.0 0.0 0.00 0.00 0.00 54 1004.8
20260905015531 82 360 7.0 0.0 0.00 0.00 0.00 54 1004.5
20260905015030 82 360 5.0 0.0 0.00 0.00 0.00 54 1004.5
20260905014629 82 360 5.0 0.0 0.00 0.00 0.00 52 1004.5
20260905014030 82 360 5.0 0.0 0.00 0.00 0.00 52 1004.5
20260905013529 83 360 6.0 0.0 0.00 0.00 0.00 51 1004.4
20260905013031 83 360 5.0 0.0 0.00 0.00 0.00 51 1004.4
20260905012529 83 360 5.0 0.0 0.00 0.00 0.00 50 1004.3
20260905012029 84 360 5.0 0.0 0.00 0.00 0.00 49 1004.4
20260905011528 85 360 5.0 0.0 0.00 0.00 0.00 48 1004.3
20260905011028 85 360 5.0 0.0 0.00 0.00 0.00 47 1004.3
20260905010528 86 360 5.0 0.0 0.00 0.00 0.00 46 1004.3
20260905010027 87 360 5.0 0.0 0.00 0.00 0.00 45 1004.3
20260905005527 87 360 5.0 0.0 0.00 0.00 0.00 44 1004.2
20260905005028 88 86 5.0 0.0 0.00 0.00 0.00 43 1004.2
20260905004626 89 90 5.0 0.0 0.00 0.00 0.00 41 1004.2
20260905004025 89 89 5.0 0.0 0.00 0.00 0.00 41 1004.2
20260905003527 90 86 5.0 0.0 0.00 0.00 0.00 40 1004.0
20260905003031 90 360 6.0 0.0 0.00 0.00 0.00 38 1004.0
20260905002524 91 81 7.0 0.0 0.00 0.00 0.00 37 1004.1
20260905002025 91 81 6.0 0.0 0.00 0.00 0.00 36 1004.0
20260905001544 91 100 6.0 0.0 0.00 0.00 0.00 36 1004.2
20260905001028 91 94 6.0 0.0 0.00 0.00 0.00 36 1004.1
20260905000526 92 86 6.0 0.0 0.00 0.00 0.00 36 1004.2
20260905000024 92 111 6.0 0.0 0.00 0.00 0.00 34 1004.2
20260904235524 93 121 7.0 0.0 0.00 0.00 0.00 34 1004.2
20260904235026 93 93 7.0 0.0 0.00 0.00 0.00 33 1004.3
20260904234624 93 119 6.0 0.0 0.00 0.00 0.00 34 1004.4
20260904234023 93 110 7.0 0.0 0.00 0.00 0.00 33 1004.4
20260904233523 93 98 7.0 0.0 0.00 0.00 0.00 33 1004.3
20260904233038 93 109 8.0 0.0 0.00 0.00 0.00 34 1004.3
20260904232524 93 360 8.0 0.0 0.00 0.00 0.00 33 1004.3
20260904232022 93 134 8.0 0.0 0.00 0.00 0.00 33 1004.3
20260904231530 93 111 8.0 0.0 0.00 0.00 0.00 32 1004.4
20260904231021 93 140 10.0 0.0 0.00 0.00 0.00 33 1004.4
20260904230521 93 360 9.0 0.0 0.00 0.00 0.00 33 1004.5
20260904230021 94 141 9.0 0.0 0.00 0.00 0.00 33 1004.5
20260904225523 94 360 10.0 0.0 0.00 0.00 0.00 33 1004.5
20260904225020 94 360 11.0 0.0 0.00 0.00 0.00 34 1004.5
20260904224620 93 124 11.0 0.0 0.00 0.00 0.00 35 1004.4
20260904224020 93 127 10.0 0.0 0.00 0.00 0.00 35 1004.5
20260904223521 93 360 10.0 0.0 0.00 0.00 0.00 35 1004.5
20260904223020 93 360 10.0 0.0 0.00 0.00 0.00 35 1004.5
20260904222520 93 360 11.0 0.0 0.00 0.00 0.00 35 1004.5
20260904222018 93 360 11.0 0.0 0.00 0.00 0.00 34 1004.6
20260904221518 93 360 11.0 0.0 0.00 0.00 0.00 35 1004.6
20260904221017 93 360 11.0 0.0 0.00 0.00 0.00 35 1004.7
20260904220517 93 360 11.0 0.0 0.00 0.00 0.00 35 1004.7
20260904220017 93 360 12.0 0.0 0.00 0.00 0.00 35 1004.8
20260904215517 93 360 12.0 0.0 0.00 0.00 0.00 35 1004.9
20260904215016 93 360 12.0 0.0 0.00 0.00 0.00 35 1004.8
20260904214615 93 360 12.0 0.0 0.00 0.00 0.00 36 1004.9
20260904214015 93 360 11.0 0.0 0.00 0.00 0.00 36 1004.9
20260904213516 92 360 11.0 0.0 0.00 0.00 0.00 36 1004.9
20260904213022 92 360 12.0 0.0 0.00 0.00 0.00 36 1004.9
20260904212513 92 360 13.0 0.0 0.00 0.00 0.00 36 1005.0
20260904212012 92 360 13.0 0.0 0.00 0.00 0.00 37 1005.0
20260904211513 92 360 14.0 0.0 0.00 0.00 0.00 37 1005.0
20260904211013 92 360 14.0 0.0 0.00 0.00 0.00 38 1004.9
20260904210511 91 360 15.0 0.0 0.00 0.00 0.00 38 1005.0
20260904210010 91 360 15.0 0.0 0.00 0.00 0.00 37 1005.0
20260904205510 91 360 15.0 0.0 0.00 0.00 0.00 37 1005.0
20260904205010 91 360 14.0 0.0 0.00 0.00 0.00 36 1005.0
20260904204609 91 360 14.0 0.0 0.00 0.00 0.00 37 1005.1
20260904204009 91 360 15.0 0.0 0.00 0.00 0.00 37 1005.1
20260904203508 90 360 16.0 0.0 0.00 0.00 0.00 39 1005.1
20260904203008 90 360 16.0 0.0 0.00 0.00 0.00 39 1005.2
20260904202507 90 360 16.0 0.0 0.00 0.00 0.00 38 1005.2
20260904202007 90 360 16.0 0.0 0.00 0.00 0.00 38 1005.2
20260904201506 90 360 16.0 0.0 0.00 0.00 0.00 38 1005.3
20260904201006 90 360 15.0 0.0 0.00 0.00 0.00 38 1005.3
20260904200510 90 360 16.0 0.0 0.00 0.00 0.00 37 1005.3
20260904200006 90 360 16.0 0.0 0.00 0.00 0.00 37 1005.5
20260904195505 90 360 15.0 0.0 0.00 0.00 0.00 37 1005.4
20260904195003 90 360 15.0 0.0 0.00 0.00 0.00 38 1005.6
20260904194603 89 360 16.0 0.0 0.00 0.00 0.00 38 1005.7
20260904194003 89 360 16.0 0.0 0.00 0.00 0.00 38 1005.7
20260904193500 89 360 17.0 0.0 0.00 0.00 0.00 37 1005.9
20260904193123 89 360 17.0 0.0 0.00 0.00 0.00 38 1006.1
20260904192559 88 360 18.0 0.0 0.00 0.00 0.00 37 1006.1
20260904192100 88 360 18.0 0.0 0.00 0.00 0.00 36 1006.1
20260904191559 88 360 19.0 0.0 0.00 0.00 0.00 35 1006.2
20260904191058 88 360 19.0 0.0 0.00 0.00 0.00 36 1006.2
20260904190558 89 360 18.0 0.0 0.00 0.00 0.00 34 1006.4
20260904190056 87 360 15.0 0.0 0.00 0.00 0.00 34 1006.4
20260904185556 87 360 15.0 0.0 0.00 0.00 0.00 42 1006.4
20260904185056 87 360 15.0 0.0 0.00 0.00 0.00 42 1006.5
20260904184555 87 360 16.0 0.0 0.00 0.00 0.00 40 1006.6
20260904184056 87 360 16.0 0.0 0.00 0.00 0.00 41 1006.6
20260904183554 86 360 17.0 0.0 0.00 0.00 0.00 40 1006.7
20260904183054 86 360 18.0 0.0 0.00 0.00 0.00 40 1006.8
20260904182553 86 360 17.0 0.0 0.00 0.00 0.00 39 1006.9
20260904182052 86 360 16.0 0.0 0.00 0.00 0.00 41 1006.9
20260904181550 86 360 16.0 0.0 0.00 0.00 0.00 44 1007.1
20260904181049 85 360 17.0 0.0 0.00 0.00 0.00 42 1007.3
20260904180551 84 360 16.0 0.0 0.00 0.00 0.00 48 1007.5
20260904180048 84 101 16.0 0.0 0.00 0.00 0.00 52 1007.5
20260904175545 83 104 16.0 0.0 0.00 0.00 0.00 54 1007.6
20260904175043 82 129 17.0 0.0 0.00 0.00 0.00 56 1007.6
20260904174542 81 127 17.0 0.0 0.00 0.00 0.00 56 1007.8
20260904174042 82 121 17.0 0.0 0.00 0.00 0.00 57 1007.8
20260904173541 81 121 17.0 0.0 0.00 0.00 0.00 58 1008.0
20260904173050 81 128 16.0 0.0 0.00 0.00 0.00 59 1008.0
20260904172540 80 131 15.0 0.0 0.00 0.00 0.00 60 1008.1
20260904172038 80 101 16.0 0.0 0.00 0.00 0.00 62 1008.2
20260904171536 79 125 16.0 0.0 0.00 0.00 0.00 62 1008.4
20260904171039 79 360 15.0 0.0 0.00 0.00 0.00 64 1008.4
20260904170535 79 95 16.0 0.0 0.00 0.00 0.00 65 1008.4
20260904170034 78 124 15.0 0.0 0.00 0.00 0.00 66 1008.4
20260904165533 78 109 15.0 0.0 0.00 0.00 0.00 67 1008.4
20260904165034 77 360 15.0 0.0 0.00 0.00 0.00 69 1008.5
20260904164530 76 110 16.0 0.0 0.00 0.00 0.00 71 1008.5
20260904164028 76 119 16.0 0.0 0.00 0.00 0.00 71 1008.6
20260904163528 75 105 16.0 0.0 0.00 0.00 0.00 72 1008.6
20260904163027 75 119 16.0 0.0 0.00 0.00 0.00 72 1008.7
20260904162530 75 360 16.0 0.0 0.00 0.00 0.00 74 1008.6
20260904162025 74 127 15.0 0.0 0.00 0.00 0.00 76 1008.6
20260904161526 73 119 14.0 0.0 0.00 0.00 0.00 79 1008.6
20260904161022 73 103 12.0 0.0 0.00 0.00 0.00 79 1008.8
20260904160524 72 360 12.0 0.0 0.00 0.00 0.00 81 1008.7
20260904160020 72 360 13.0 0.0 0.00 0.00 0.00 83 1008.8
20260904155518 71 360 12.0 0.0 0.00 0.00 0.00 85 1009.0
20260904155017 70 360 10.0 0.0 0.00 0.00 0.00 88 1008.9
20260904154516 69 360 9.0 0.0 0.00 0.00 0.00 92 1009.0
20260904154016 69 360 10.0 0.0 0.00 0.00 0.00 92 1009.0
20260904153517 68 360 10.0 0.0 0.00 0.00 0.00 93 1009.0
20260904153014 67 360 10.0 0.0 0.00 0.00 0.00 94 1009.1
20260904152512 66 360 9.0 0.0 0.00 0.00 0.00 94 1009.2
20260904152015 66 360 8.0 0.0 0.00 0.00 0.00 95 1009.2
20260904151511 66 360 8.0 0.0 0.00 0.00 0.00 95 1009.1
20260904151010 65 360 9.0 0.0 0.00 0.00 0.00 95 1009.1
20260904150509 65 360 10.0 0.0 0.00 0.00 0.00 96 1009.2
20260904150011 65 360 9.0 0.0 0.00 0.00 0.00 95 1009.2
20260904145508 65 360 8.0 0.0 0.00 0.00 0.00 96 1009.2
20260904145006 64 360 8.0 0.0 0.00 0.00 0.00 96 1009.2
20260904144506 64 360 7.0 0.0 0.00 0.00 0.00 96 1009.6
20260904144007 64 360 6.0 0.0 0.00 0.00 0.00 96 1009.6
20260904143505 64 360 6.0 0.0 0.00 0.00 0.00 96 1009.6
20260904143004 64 360 5.0 0.0 0.00 0.00 0.00 96 1009.7
20260904142504 63 360 5.0 0.0 0.00 0.00 0.00 96 1009.8
20260904142004 63 360 5.0 0.0 0.00 0.00 0.00 96 1009.8
20260904141502 63 360 4.0 0.0 0.00 0.00 0.00 96 1009.8
20260904141001 63 360 5.0 0.0 0.00 0.00 0.00 96 1009.7
20260904140501 63 360 5.0 0.0 0.00 0.00 0.00 96 1009.7
20260904135600 62 360 6.0 0.0 0.00 0.00 0.00 95 1009.7
20260904135059 62 360 5.0 0.0 0.00 0.00 0.00 95 1009.6
20260904134604 62 360 6.0 0.0 0.00 0.00 0.00 95 1009.6
20260904133559 62 360 6.0 0.0 0.00 0.00 0.00 95 1009.3
20260904133107 62 360 6.0 0.0 0.00 0.00 0.00 95 1009.4
20260904132659 62 360 5.0 0.0 0.00 0.00 0.00 95 1009.4
20260904132058 62 360 5.0 0.0 0.00 0.00 0.00 95 1009.3
20260904131602 62 360 5.0 0.0 0.00 0.00 0.00 95 1009.3
20260904131058 62 360 4.0 0.0 0.00 0.00 0.00 95 1009.4
20260904130557 62 360 3.0 0.0 0.00 0.00 0.00 95 1009.4
20260904130058 62 360 3.0 0.0 0.00 0.00 0.00 95 1009.4
20260904125600 61 360 2.0 0.0 0.00 0.00 0.00 95 1009.4
20260904125056 61 360 2.0 0.0 0.00 0.00 0.00 95 1009.2
20260904124603 61 360 3.0 0.0 0.00 0.00 0.00 95 1009.1
20260904123555 61 360 4.0 0.0 0.00 0.00 0.00 95 1009.1
20260904123055 61 360 4.0 0.0 0.00 0.00 0.00 95 1009.0
20260904122554 61 360 4.0 0.0 0.00 0.00 0.00 95 1009.0
20260904122056 60 360 3.0 0.0 0.00 0.00 0.00 94 1009.1
20260904121554 60 360 3.0 0.0 0.00 0.00 0.00 94 1009.1
20260904121053 60 360 3.0 0.0 0.00 0.00 0.00 94 1009.1
20260904120553 60 360 3.0 0.0 0.00 0.00 0.00 94 1009.0
20260904120059 61 360 3.0 0.0 0.00 0.00 0.00 94 1009.0
20260904115552 61 360 3.0 0.0 0.00 0.00 0.00 94 1009.1
20260904115055 61 360 3.0 0.0 0.00 0.00 0.00 94 1009.0
20260904114555 61 360 4.0 0.0 0.00 0.00 0.00 94 1009.1
20260904113555 61 360 3.0 0.0 0.00 0.00 0.00 94 1009.1
20260904113052 60 360 3.0 0.0 0.00 0.00 0.00 94 1009.1
20260904112551 61 360 3.0 0.0 0.00 0.00 0.00 93 1009.1
20260904112051 60 360 2.0 0.0 0.00 0.00 0.00 94 1009.1
20260904111551 60 360 2.0 0.0 0.00 0.00 0.00 93 1009.1
20260904111051 61 360 2.0 0.0 0.00 0.00 0.00 93 1009.1
20260904110551 61 360 2.0 0.0 0.00 0.00 0.00 93 1009.1
20260904110051 61 360 3.0 0.0 0.00 0.00 0.00 93 1009.2
20260904105553 61 360 3.0 0.0 0.00 0.00 0.00 93 1009.2
20260904105050 61 360 3.0 0.0 0.00 0.00 0.00 93 1009.2
20260904104549 61 360 3.0 0.0 0.00 0.00 0.00 93 1009.1
20260904103550 61 360 2.0 0.0 0.00 0.00 0.00 92 1009.2
20260904103050 61 360 2.0 0.0 0.00 0.00 0.00 93 1009.2
20260904102550 61 360 2.0 0.0 0.00 0.00 0.00 92 1009.2
20260904102050 61 360 1.0 0.0 0.00 0.00 0.00 93 1009.2
20260904101550 61 360 1.0 0.0 0.00 0.00 0.00 93 1009.1
20260904101051 61 360 1.0 0.0 0.00 0.00 0.00 93 1009.1
20260904100549 61 360 0.0 0.0 0.00 0.00 0.00 93 1009.1
20260904100051 61 360 0.0 0.0 0.00 0.00 0.00 93 1009.0
20260904095550 61 360 0.0 0.0 0.00 0.00 0.00 92 1008.8
20260904095048 61 360 1.0 0.0 0.00 0.00 0.00 92 1008.8
20260904094548 61 360 1.0 0.0 0.00 0.00 0.00 93 1008.8
20260904093547 60 360 0.0 0.0 0.00 0.00 0.00 92 1008.8
20260904093052 60 360 0.0 0.0 0.00 0.00 0.00 91 1008.9
20260904092545 60 360 0.0 0.0 0.00 0.00 0.00 92 1009.0
20260904092048 60 360 0.0 0.0 0.00 0.00 0.00 92 1009.0
20260904091552 60 360 0.0 0.0 0.00 0.00 0.00 91 1009.0
20260904091046 60 360 1.0 0.0 0.00 0.00 0.00 91 1008.9
20260904090544 60 360 0.0 0.0 0.00 0.00 0.00 91 1009.0
20260904090043 61 360 1.0 0.0 0.00 0.00 0.00 91 1008.8
20260904085545 61 360 1.0 0.0 0.00 0.00 0.00 91 1008.6
20260904085044 61 360 0.0 0.0 0.00 0.00 0.00 91 1008.6
20260904084543 61 360 1.0 0.0 0.00 0.00 0.00 91 1008.5
20260904083542 61 360 1.0 0.0 0.00 0.00 0.00 91 1008.7
20260904083043 61 360 1.0 0.0 0.00 0.00 0.00 90 1008.7
20260904082544 61 360 1.0 0.0 0.00 0.00 0.00 90 1008.7
20260904082145 62 360 2.0 0.0 0.00 0.00 0.00 90 1008.7
20260904081542 62 360 2.0 0.0 0.00 0.00 0.00 90 1008.6
20260904081041 62 360 2.0 0.0 0.00 0.00 0.00 91 1008.7
20260904080541 63 360 2.0 0.0 0.00 0.00 0.00 91 1008.8
20260904080041 63 360 2.0 0.0 0.00 0.00 0.00 91 1008.8
20260904075539 62 360 1.0 0.0 0.00 0.00 0.00 91 1008.8
20260904075037 62 360 0.0 0.0 0.00 0.00 0.00 91 1008.9
20260904074552 61 360 0.0 0.0 0.00 0.00 0.00 90 1008.9
20260904073536 61 360 0.0 0.0 0.00 0.00 0.00 88 1008.7
20260904073035 61 360 0.0 0.0 0.00 0.00 0.00 89 1008.7
20260904072535 61 360 1.0 0.0 0.00 0.00 0.00 87 1008.7
20260904072034 62 360 1.0 0.0 0.00 0.00 0.00 87 1008.6
20260904071548 64 360 2.0 0.0 0.00 0.00 0.00 88 1008.6
20260904071034 64 360 3.0 0.0 0.00 0.00 0.00 89 1008.6
20260904070534 64 360 3.0 0.0 0.00 0.00 0.00 89 1008.6
20260904070034 64 360 2.0 0.0 0.00 0.00 0.00 90 1008.6
20260904065533 63 360 2.0 0.0 0.00 0.00 0.00 89 1008.6
20260904065033 63 360 2.0 0.0 0.00 0.00 0.00 90 1008.6
20260904064536 63 360 2.0 0.0 0.00 0.00 0.00 90 1008.6
20260904063533 62 360 0.0 0.0 0.00 0.00 0.00 89 1008.4
20260904063043 62 360 0.0 0.0 0.00 0.00 0.00 88 1008.5
20260904062532 62 360 0.0 0.0 0.00 0.00 0.00 87 1008.5
20260904062033 62 360 0.0 0.0 0.00 0.00 0.00 87 1008.4
20260904061532 63 360 0.0 0.0 0.00 0.00 0.00 86 1008.4
20260904061030 63 360 0.0 0.0 0.00 0.00 0.00 86 1008.3
20260904060530 64 360 0.0 0.0 0.00 0.00 0.00 87 1008.2
20260904060030 64 360 0.0 0.0 0.00 0.00 0.00 87 1008.1
20260904055530 64 360 0.0 0.0 0.00 0.00 0.00 87 1008.1
20260904055029 64 360 1.0 0.0 0.00 0.00 0.00 86 1008.1
20260904054534 64 360 3.0 0.0 0.00 0.00 0.00 87 1008.2
20260904053532 65 360 3.0 0.0 0.00 0.00 0.00 86 1008.0
20260904053030 65 360 3.0 0.0 0.00 0.00 0.00 86 1008.0
20260904052531 65 360 3.0 0.0 0.00 0.00 0.00 86 1008.0
20260904052031 65 360 4.0 0.0 0.00 0.00 0.00 85 1007.9
20260904051530 66 360 4.0 0.0 0.00 0.00 0.00 85 1007.9
20260904051031 66 360 5.0 0.0 0.00 0.00 0.00 85 1008.0
20260904050529 66 360 6.0 0.0 0.00 0.00 0.00 86 1007.9
20260904050030 66 360 6.0 0.0 0.00 0.00 0.00 87 1007.8
20260904045528 65 360 5.0 0.0 0.00 0.00 0.00 88 1007.8
20260904045028 64 360 3.0 0.0 0.00 0.00 0.00 89 1007.6
20260904044529 63 360 0.0 0.0 0.00 0.00 0.00 89 1007.5
20260904043525 62 360 1.0 0.0 0.00 0.00 0.00 88 1007.5
20260904043026 62 360 1.0 0.0 0.00 0.00 0.00 89 1007.6
20260904042526 61 360 0.0 0.0 0.00 0.00 0.00 89 1007.6
20260904042029 61 360 0.0 0.0 0.00 0.00 0.00 89 1007.7
20260904041526 60 360 1.0 0.0 0.00 0.00 0.00 89 1007.6
20260904041025 59 360 1.0 0.0 0.00 0.00 0.00 88 1007.7
20260904040528 59 360 2.0 0.0 0.00 0.00 0.00 87 1007.7
20260904040025 58 360 2.0 0.0 0.00 0.00 0.00 87 1007.7
20260904035524 58 360 1.0 0.0 0.00 0.00 0.00 85 1007.6
20260904035027 59 360 2.0 0.0 0.00 0.00 0.00 86 1007.7
20260904034527 59 360 2.0 0.0 0.00 0.00 0.00 86 1007.6
20260904033524 59 360 2.0 0.0 0.00 0.00 0.00 85 1007.6
20260904033026 59 360 1.0 0.0 0.00 0.00 0.00 84 1007.6
20260904032523 60 360 0.0 0.0 0.00 0.00 0.00 84 1007.7
20260904032024 60 360 0.0 0.0 0.00 0.00 0.00 82 1007.6
20260904031523 60 360 0.0 0.0 0.00 0.00 0.00 80 1007.6
20260904031026 61 360 0.0 0.0 0.00 0.00 0.00 80 1007.6
20260904030523 62 360 0.0 0.0 0.00 0.00 0.00 81 1007.6
20260904030029 63 360 0.0 0.0 0.00 0.00 0.00 81 1007.4
20260904025522 64 360 0.0 0.0 0.00 0.00 0.00 81 1007.4
20260904025021 64 360 0.0 0.0 0.00 0.00 0.00 80 1007.5
20260904024523 64 360 0.0 0.0 0.00 0.00 0.00 80 1007.4
20260904023520 64 360 0.0 0.0 0.00 0.00 0.00 79 1007.2
20260904023020 64 360 0.0 0.0 0.00 0.00 0.00 79 1007.1
20260904022519 65 360 0.0 0.0 0.00 0.00 0.00 78 1007.0
20260904022019 65 360 0.0 0.0 0.00 0.00 0.00 77 1006.8